OneWeb SL0145

operational
NORAD ID: 47260 Int'l Des: 2020-100 Owner: ONEWEB Country: UK Constellation: oneweb
LEOCIRCULARPOLARONEWEB_TYPE

Über OneWeb SL0145

Beschreibung wird geladen...

Live-Position

3D-Globus wird geladen...

Nächste Überflüge

Höhenverlauf

Altitude vs Time

uPlot chart will show altitude changes over time

Zweizeiliger Elementsatz

1 47260U 20100C 25350.35244251 -.00000418 00000-0 -11983-2 0 9992
2 47260 87.8938 26.9569 0001966 90.1103 270.0250 13.12350731240746
Epoch: 16. Dez. 2025 • Age: 19 hours

Aktueller Status

Höhe 1229.8 km
Geschwindigkeit 7.24 km/s
Subsatellitenpunkt -38.77°S, 64.44°E
Startdatum 18. Dez. 2020
Alter 4.9 years
Typ internet

Technische Details

Klassifizierung Payload
Masse 148.00 kg
Trockenmasse 140.00 kg
Gesamtmasse 148.00 kg
Länge 1.30 m
Durchmesser 1.00 m
Spannweite 5.00 m
Form Trapezoid+2 pan
Hersteller ONEWUS
Bus-Typ ARROW
Phasenstatus In Orbit
Besitzer/Staat ONEWEB/UK

Große Konstellationen

Loading constellations...